User: anonymous   Login
Location: Cluj-Napoca
(46.7712°N, 23.6236°E)
Time: 09:46:54
(UTC+03:00)
Language:

Hubble Space Telescope - Orbit

View from above orbital plane
View from above orbital plane
View from above satellite
View from above satellite

Ground track
Ground track

The orbit data is extracted from the following two-line orbital elements,

1 20580U 90037B   21298.27034922  .00000875  00000-0  41858-4 0  9995
2 20580  28.4703 286.0361 0002719  26.6581 353.2549 15.09795420530634
Epoch (UTC): 25 October 2021 06:29:18
Eccentricity: 0.0002719
inclination: 28.4703°
perigee height: 535 km
apogee height: 539 km
right ascension of ascending node: 286.0361°
argument of perigee: 26.6581°
revolutions per day: 15.09795420
mean anomaly at epoch: 353.2549°
orbit number at epoch: 53063

The dashed part of the orbit path shows where the satellite is in the earth's shadow,  

DLR